GFSNW_700_temp_060.txt.gz
Temp
-7 -7 -7 -7 -7 -7 -7 -7 -7 -7 -7 -7 -6 -4 -3 -5 -6 -5 -4 -2 -1 -3 -2 -1 -0 1 1 2 2 2 3 4 3 4 5 6 6 7 7 6 5 6 6 5
-7 -7 -7 -6 -7 -7 -7 -7 -7 -8 -7 -7 -5 -5 -5 -6 -7 -5 -5 -3 -1 -2 -3 -2 -1 0 1 1 1 1 2 3 3 4 5 5 5 6 7 7 7 6 4 5
-7 -7 -7 -7 -7 -7 -7 -7 -7 -7 -7 -6 -6 -6 -6 -7 -7 -6 -4 -4 -3 -3 -3 -3 -1 0 0 1 1 1 0 2 2 3 4 5 6 6 6 7 6 6 6 6
-7 -7 -7 -7 -6 -7 -7 -7 -7 -6 -7 -7 -7 -7 -7 -6 -7 -7 -6 -5 -4 -3 -3 -3 -2 -1 -1 -0 1 1 -0 1 3 3 4 5 5 6 6 6 6 6 6 7
-7 -7 -6 -6 -6 -7 -7 -7 -7 -7 -7 -8 -8 -7 -4 -6 -7 -7 -7 -5 -3 -3 -2 -3 -3 -1 -0 -2 -1 -0 -2 -1 2 3 4 5 5 4 5 6 6 6 6 6
-7 -6 -6 -6 -6 -7 -7 -7 -7 -7 -7 -7 -7 -3 -5 -8 -8 -7 -6 -6 -6 -4 -4 -4 -3 -2 -2 -2 -2 -1 -1 -3 -1 0 3 5 5 5 4 5 5 6 6 6
-7 -6 -6 -7 -7 -7 -7 -7 -7 -7 -7 -7 -5 -7 -7 -6 -7 -7 -5 -5 -6 -4 -4 -4 -4 -3 -2 -2 -2 -2 -1 -2 -3 -1 1 1 3 4 4 5 5 5 6 6
-8 -8 -8 -8 -8 -8 -8 -7 -7 -7 -7 -7 -7 -6 -6 -7 -6 -6 -5 -4 -5 -5 -5 -5 -4 -3 -3 -2 -2 -2 -1 -2 -3 -3 -1 2 3 3 4 4 5 5 6 6
-7 -7 -8 -8 -9 -9 -9 -8 -8 -8 -7 -6 -6 -6 -7 -6 -5 -6 -5 -5 -5 -5 -5 -5 -5 -4 -2 -2 -2 -2 -2 -2 -2 -3 -3 -2 3 4 4 4 5 5 6 5
-8 -8 -8 -8 -8 -9 -9 -9 -9 -9 -8 -7 -7 -7 -6 -6 -6 -5 -5 -4 -5 -5 -5 -5 -5 -5 -3 -3 -2 -3 -2 -2 -2 -2 -3 -1 2 3 4 4 4 5 5 6
-9 -9 -9 -10 -10 -9 -10 -9 -9 -9 -9 -7 -7 -7 -7 -6 -6 -6 -5 -5 -5 -5 -6 -6 -5 -5 -3 -3 -2 -2 -1 -1 -1 -2 -3 -2 2 3 3 2 3 4 5 5
-9 -9 -9 -9 -9 -9 -9 -10 -9 -9 -9 -8 -8 -7 -7 -7 -6 -5 -5 -5 -4 -4 -5 -5 -5 -4 -3 -3 -3 -2 -2 -1 -0 -1 -1 -1 1 2 2 0 2 4 4 4
-9 -9 -9 -9 -9 -9 -9 -9 -9 -10 -10 -9 -9 -7 -7 -7 -7 -6 -6 -5 -6 -5 -5 -5 -4 -4 -3 -3 -3 -2 -2 -1 -1 -1 1 1 1 1 1 2 1 2 2 4
-9 -9 -9 -9 -9 -9 -9 -9 -9 -9 -9 -10 -8 -8 -7 -7 -6 -7 -6 -6 -5 -5 -6 -6 -5 -4 -3 -3 -2 -2 -1 -1 -0 -0 0 1 1 1 1 0 1 2 1 2
-9 -9 -9 -9 -9 -9 -9 -9 -8 -8 -9 -9 -8 -7 -7 -7 -7 -7 -6 -6 -6 -6 -6 -5 -5 -4 -4 -3 -3 -2 -2 -2 -1 -0 0 1 1 1 2 1 1 1 1 1
-9 -9 -9 -9 -9 -9 -9 -9 -9 -9 -9 -8 -9 -8 -6 -6 -6 -7 -7 -6 -6 -6 -6 -5 -5 -5 -4 -4 -3 -3 -2 -2 -2 -0 -0 0 1 0 1 1 1 1 2 1
-9 -9 -9 -9 -10 -9 -8 -8 -7 -9 -9 -8 -7 -7 -7 -8 -7 -7 -6 -6 -6 -6 -6 -5 -5 -5 -5 -4 -3 -2 -4 -2 -2 -1 -1 -0 0 0 0 1 1 1 1 1
-9 -9 -10 -9 -9 -9 -9 -7 -8 -8 -8 -8 -8 -7 -7 -7 -7 -7 -6 -7 -6 -6 -6 -6 -6 -5 -5 -4 -4 -3 -3 -3 -2 -2 -1 -1 -0 -0 0 1 1 0 0 0
-9 -9 -8 -9 -8 -8 -8 -8 -8 -8 -8 -7 -7 -7 -7 -7 -7 -7 -8 -7 -7 -6 -6 -6 -6 -6 -5 -5 -5 -4 -3 -2 -2 -2 -2 -1 -1 -1 -0 -0 -0 -0 -0 0
-9 -9 -9 -8 -8 -8 -8 -8 -8 -8 -7 -7 -7 -6 -6 -7 -7 -7 -7 -7 -6 -6 -6 -6 -6 -6 -5 -5 -5 -4 -4 -3 -2 -1 -1 -1 -1 -1 -1 -1 -1 -1 -1 -1
-8 -8 -8 -8 -8 -8 -8 -8 -8 -8 -7 -7 -7 -7 -7 -7 -7 -7 -7 -6 -7 -6 -6 -6 -6 -6 -7 -6 -5 -4 -4 -3 -3 -3 -2 -2 -2 -2 -2 -2 -2 -2 -2 -2
-7 -7 -8 -8 -8 -7 -8 -8 -8 -8 -8 -7 -7 -7 -7 -7 -7 -7 -7 -6 -6 -6 -6 -6 -8 -9 -7 -7 -6 -6 -6 -4 -4 -3 -4 -3 -3 -3 -3 -3 -3 -3 -2 -3
-8 -8 -7 -8 -8 -8 -8 -9 -9 -8 -8 -8 -7 -8 -7 -7 -6 -7 -7 -6 -6 -6 -6 -11 -13 -11 -9 -8 -7 -6 -5 -5 -4 -4 -4 -4 -4 -4 -5 -4 -4 -4 -5 -5
-7 -7 -8 -8 -9 -10 -9 -9 -8 -8 -8 -8 -7 -7 -7 -7 -7 -7 -6 -7 -7 -8 -11 -14 -12 -10 -9 -8 -7 -7 -7 -7 -7 -7 -7 -7 -7 -7 -7 -7 -7 -7 -7 -8
-7 -8 -9 -11 -11 -10 -9 -8 -8 -8 -8 -8 -7 -7 -7 -7 -7 -8 -8 -9 -12 -14 -15 -14 -13 -12 -11 -10 -9 -9 -9 -9 -9 -9 -8 -9 -9 -9 -9 -9 -9 -9 -9 -9
-8 -10 -11 -11 -10 -10 -9 -8 -8 -8 -8 -7 -7 -8 -8 -7 -9 -10 -12 -13 -15 -16 -15 -14 -13 -12 -11 -11 -10 -11 -10 -10 -10 -10 -9 -10 -10 -10 -10 -10 -10 -10 -10 -10
-10 -12 -12 -11 -10 -9 -9 -9 -9 -8 -8 -8 -7 -7 -9 -10 -10 -13 -14 -15 -15 -14 -14 -14 -13 -12 -11 -11 -11 -11 -11 -11 -10 -10 -11 -11 -11 -11 -12 -11 -11 -12 -12 -12

GFSNW_700_temp_066.txt.gz
Temp
-9 -9 -9 -9 -9 -10 -10 -9 -9 -8 -7 -8 -8 -8 -8 -7 -5 -4 -3 -3 -4 -4 -3 -2 -1 -1 -1 -1 -1 -0 -0 0 1 2 3 3 3 3 4 4 4 4 4 5
-10 -10 -10 -10 -9 -10 -10 -9 -8 -7 -7 -8 -8 -9 -8 -6 -6 -6 -5 -4 -4 -4 -4 -4 -3 -2 -2 -1 -1 -2 -1 -1 -0 2 2 3 3 3 4 4 4 4 3 4
-10 -10 -10 -10 -9 -11 -10 -9 -9 -7 -7 -7 -7 -8 -9 -8 -7 -7 -6 -5 -4 -5 -5 -5 -4 -3 -2 -2 -1 -1 -1 -2 -2 -1 -1 -1 -0 2 2 3 3 3 4 4
-10 -10 -10 -9 -10 -11 -10 -9 -9 -8 -7 -8 -8 -8 -8 -8 -8 -8 -7 -6 -6 -5 -5 -5 -5 -4 -3 -2 -1 -1 -2 -1 -1 -1 -2 -1 -0 0 2 2 2 3 4 5
-10 -10 -10 -9 -10 -11 -10 -9 -9 -8 -7 -7 -8 -8 -8 -8 -8 -8 -7 -6 -6 -5 -6 -6 -5 -4 -4 -4 -3 -3 -2 -2 -1 -1 -1 0 1 1 1 2 3 3 3 3
-10 -10 -10 -11 -11 -11 -10 -9 -9 -9 -8 -8 -8 -8 -8 -8 -8 -8 -8 -7 -7 -5 -5 -6 -6 -6 -5 -5 -4 -3 -4 -3 -2 -2 -1 -0 1 1 1 1 2 2 2 4
-10 -10 -11 -10 -10 -10 -10 -9 -9 -9 -8 -8 -7 -8 -8 -8 -8 -8 -7 -7 -6 -6 -6 -6 -6 -6 -6 -5 -4 -4 -4 -4 -3 -2 -2 -3 2 2 2 2 1 1 2 2
-9 -10 -10 -10 -9 -10 -10 -10 -10 -9 -9 -9 -8 -8 -8 -8 -8 -7 -7 -7 -6 -7 -7 -6 -6 -6 -5 -4 -4 -4 -4 -4 -3 -3 -3 -1 1 1 2 2 3 3 2 3
-9 -9 -9 -9 -9 -9 -9 -9 -9 -9 -9 -8 -8 -8 -8 -7 -7 -8 -7 -6 -7 -8 -8 -7 -7 -6 -5 -4 -4 -4 -4 -4 -4 -4 -4 -5 1 1 1 1 1 3 2 2
-9 -9 -9 -9 -9 -9 -9 -9 -9 -9 -9 -8 -8 -8 -8 -8 -7 -7 -7 -7 -7 -7 -7 -8 -7 -7 -6 -5 -5 -4 -4 -4 -4 -4 -3 -2 -1 0 -0 -1 0 1 3 2
-10 -10 -9 -9 -9 -9 -9 -9 -9 -9 -9 -9 -8 -8 -8 -7 -8 -7 -7 -7 -7 -7 -8 -8 -7 -7 -6 -5 -5 -4 -4 -4 -4 -4 -4 -4 -1 -0 -1 -1 -0 -1 0 2
-10 -10 -10 -10 -9 -9 -9 -9 -9 -9 -9 -8 -8 -8 -8 -7 -7 -7 -7 -6 -6 -6 -6 -7 -7 -6 -6 -5 -5 -4 -5 -4 -3 -3 -2 -1 -1 -0 -0 -1 -0 -0 -0 0
-9 -9 -9 -10 -10 -10 -9 -9 -9 -9 -9 -9 -8 -8 -8 -8 -8 -7 -7 -6 -7 -7 -6 -6 -5 -5 -5 -5 -5 -5 -4 -4 -3 -3 -3 -3 -2 -1 -1 -1 -1 -1 -1 -0
-9 -9 -9 -9 -10 -10 -10 -9 -9 -9 -9 -9 -9 -8 -8 -8 -7 -7 -6 -6 -7 -7 -7 -6 -6 -6 -5 -5 -5 -5 -5 -4 -4 -3 -3 -3 -2 -2 -2 -1 -0 -1 -1 -2
-9 -9 -9 -9 -9 -10 -10 -9 -9 -9 -9 -9 -9 -9 -9 -8 -7 -8 -7 -7 -7 -7 -7 -7 -6 -6 -6 -6 -5 -5 -5 -5 -5 -4 -3 -3 -2 -2 -2 -1 -1 -1 -1 -1
-9 -9 -10 -10 -9 -9 -10 -10 -10 -9 -9 -9 -9 -8 -8 -8 -8 -7 -7 -6 -7 -7 -7 -7 -7 -6 -6 -6 -6 -5 -5 -5 -5 -4 -3 -3 -3 -3 -2 -2 -1 -1 -1 -1
-9 -9 -9 -10 -10 -9 -9 -9 -8 -9 -9 -10 -10 -9 -8 -8 -8 -8 -7 -7 -7 -7 -7 -6 -6 -6 -6 -6 -6 -6 -5 -5 -4 -4 -4 -3 -3 -3 -3 -3 -2 -2 -2 -1
-9 -9 -9 -10 -10 -10 -9 -9 -9 -9 -9 -10 -9 -8 -8 -8 -8 -8 -7 -7 -7 -7 -7 -7 -6 -7 -7 -7 -6 -5 -5 -5 -5 -4 -6 -5 -4 -3 -3 -3 -3 -3 -3 -2
-9 -9 -10 -10 -10 -10 -9 -10 -9 -9 -9 -9 -9 -8 -7 -8 -8 -8 -7 -8 -8 -7 -6 -7 -7 -7 -7 -6 -5 -6 -6 -6 -5 -5 -6 -5 -5 -4 -4 -4 -3 -3 -3 -3
-9 -9 -10 -9 -10 -9 -10 -10 -10 -9 -9 -9 -8 -8 -7 -7 -7 -8 -7 -8 -7 -7 -7 -7 -8 -7 -7 -7 -6 -6 -5 -5 -6 -5 -6 -6 -5 -5 -4 -5 -4 -5 -4 -4
-9 -9 -9 -9 -9 -9 -9 -9 -9 -9 -8 -9 -8 -8 -7 -7 -7 -8 -7 -7 -7 -7 -7 -7 -7 -8 -8 -8 -6 -6 -5 -6 -6 -6 -6 -5 -6 -5 -5 -5 -4 -3 -3 -3
-9 -9 -9 -9 -9 -9 -9 -9 -9 -9 -8 -8 -8 -8 -8 -8 -7 -7 -7 -7 -7 -7 -7 -7 -8 -9 -8 -8 -7 -6 -6 -6 -6 -6 -6 -7 -7 -6 -6 -6 -5 -5 -4 -4
-9 -9 -8 -8 -8 -8 -9 -10 -9 -9 -8 -7 -8 -8 -8 -8 -7 -8 -7 -7 -7 -8 -8 -9 -10 -10 -9 -9 -8 -8 -8 -7 -6 -7 -7 -7 -7 -8 -7 -6 -6 -7 -7 -7
-8 -7 -7 -8 -8 -9 -9 -9 -9 -9 -8 -8 -8 -8 -8 -8 -8 -7 -7 -8 -8 -8 -9 -12 -12 -11 -11 -10 -9 -9 -9 -9 -9 -9 -9 -9 -9 -9 -9 -9 -9 -9 -9 -9
-8 -7 -7 -9 -10 -10 -9 -9 -9 -9 -8 -9 -9 -8 -8 -8 -8 -8 -8 -9 -10 -12 -13 -13 -12 -12 -11 -11 -11 -11 -11 -11 -11 -11 -11 -11 -11 -11 -11 -11 -11 -11 -11 -12
-8 -9 -10 -10 -10 -10 -9 -9 -8 -9 -9 -9 -9 -8 -8 -8 -9 -10 -11 -12 -14 -15 -14 -14 -14 -13 -13 -13 -13 -12 -12 -12 -12 -12 -12 -12 -12 -12 -12 -12 -12 -12 -12 -12
-10 -12 -11 -11 -11 -10 -9 -9 -8 -8 -8 -8 -8 -8 -9 -10 -11 -12 -13 -14 -15 -15 -15 -15 -14 -14 -14 -13 -13 -13 -13 -13 -13 -13 -13 -13 -13 -13 -13 -13 -12 -12 -13 -13

GFSNW_700_temp_072.txt.gz
Temp
-10 -11 -11 -9 -9 -10 -10 -11 -11 -9 -9 -9 -9 -9 -8 -8 -8 -7 -5 -4 -5 -5 -4 -4 -3 -2 -3 -3 -2 -1 -1 0 2 2 2 3 3 3 4 4 6 5 6 7
-11 -12 -12 -10 -10 -11 -12 -11 -10 -9 -9 -9 -9 -8 -8 -8 -8 -7 -7 -6 -5 -6 -5 -4 -4 -3 -3 -2 -3 -2 -2 -0 2 2 2 2 3 2 2 3 3 4 5 5
-11 -12 -12 -12 -11 -12 -12 -11 -11 -10 -9 -9 -8 -9 -9 -8 -8 -8 -7 -7 -6 -6 -6 -5 -5 -4 -3 -2 -2 -2 -2 -1 -1 3 2 0 0 0 1 1 3 4 4 5
-11 -12 -13 -12 -12 -12 -12 -11 -11 -11 -10 -9 -9 -9 -9 -8 -8 -8 -7 -8 -7 -6 -6 -5 -5 -5 -5 -3 -2 -2 -2 -1 -1 -1 -1 -1 -0 0 1 1 1 2 3 3
-11 -11 -11 -12 -12 -12 -12 -12 -12 -11 -10 -9 -8 -9 -8 -8 -7 -8 -8 -7 -7 -7 -6 -6 -5 -5 -6 -5 -4 -4 -3 -2 -2 -1 -1 -1 -0 0 0 1 1 2 2 3
-11 -11 -11 -11 -12 -12 -12 -12 -12 -11 -10 -10 -10 -9 -7 -8 -7 -7 -7 -8 -8 -7 -7 -7 -7 -7 -7 -6 -5 -4 -4 -3 -2 -1 -2 -1 -1 1 1 2 2 2 3 3
-11 -10 -11 -11 -11 -12 -12 -12 -11 -12 -11 -11 -10 -10 -9 -8 -8 -7 -8 -8 -8 -7 -7 -6 -6 -6 -6 -6 -6 -5 -5 -4 -4 -2 -2 -1 1 1 1 1 1 2 1 1
-11 -11 -11 -11 -12 -12 -12 -11 -11 -11 -11 -11 -10 -9 -8 -8 -8 -8 -8 -8 -8 -7 -7 -7 -7 -6 -6 -5 -5 -6 -5 -5 -4 -3 -1 -0 -1 0 0 1 1 0 -0 -0
-11 -11 -11 -11 -11 -11 -11 -11 -11 -12 -11 -10 -10 -10 -10 -8 -8 -8 -8 -8 -8 -7 -7 -7 -6 -5 -4 -4 -5 -6 -6 -6 -4 -4 -2 -1 -0 -1 -0 0 1 -1 -1 -2
-11 -11 -11 -11 -11 -11 -11 -11 -11 -12 -11 -10 -9 -10 -9 -9 -9 -8 -8 -8 -8 -8 -7 -8 -6 -5 -5 -4 -4 -5 -6 -6 -5 -4 -3 -1 -1 -1 -0 -0 -1 -1 -2 -2
-10 -10 -10 -10 -10 -10 -10 -11 -11 -11 -11 -10 -9 -10 -10 -9 -8 -8 -8 -8 -8 -8 -8 -7 -7 -6 -5 -5 -4 -5 -5 -5 -5 -5 -4 -3 -2 -2 -2 -2 -2 -2 -1 -1
-10 -10 -10 -10 -10 -10 -10 -10 -11 -11 -11 -10 -10 -9 -9 -9 -8 -9 -8 -8 -7 -7 -7 -7 -7 -6 -6 -5 -4 -4 -4 -3 -3 -3 -2 -3 -2 -3 -3 -2 -2 -2 -1 -1
-9 -10 -10 -10 -10 -10 -10 -10 -11 -11 -11 -11 -10 -9 -9 -9 -9 -8 -8 -8 -7 -7 -7 -7 -7 -7 -6 -5 -5 -4 -4 -4 -4 -4 -3 -3 -3 -3 -2 -2 -2 -2 -2 -2
-10 -10 -10 -10 -10 -10 -10 -10 -10 -11 -10 -11 -10 -9 -10 -9 -8 -8 -8 -8 -8 -7 -7 -7 -7 -7 -7 -6 -5 -5 -4 -4 -4 -4 -4 -4 -4 -4 -3 -3 -3 -3 -3 -3
-10 -10 -10 -10 -10 -10 -10 -10 -10 -10 -10 -10 -10 -9 -8 -8 -8 -8 -8 -8 -7 -7 -7 -7 -7 -7 -7 -6 -6 -6 -5 -5 -5 -4 -4 -4 -4 -4 -4 -4 -4 -3 -3 -3
-10 -10 -9 -10 -10 -10 -10 -10 -10 -9 -10 -10 -9 -9 -8 -8 -7 -8 -8 -8 -8 -7 -7 -7 -7 -7 -7 -6 -6 -5 -6 -5 -5 -5 -5 -5 -5 -4 -4 -4 -4 -4 -4 -3
-10 -10 -9 -9 -10 -10 -10 -10 -9 -9 -9 -9 -9 -9 -9 -8 -8 -8 -8 -8 -8 -8 -7 -7 -7 -7 -7 -7 -6 -6 -6 -5 -5 -5 -5 -5 -5 -4 -4 -4 -4 -4 -4 -4
-10 -9 -9 -9 -10 -10 -10 -10 -9 -9 -10 -9 -9 -9 -9 -8 -9 -9 -8 -8 -8 -8 -7 -7 -7 -7 -7 -7 -6 -6 -5 -6 -6 -5 -5 -5 -5 -5 -5 -5 -5 -5 -4 -4
-10 -10 -9 -10 -10 -10 -10 -10 -10 -10 -9 -9 -9 -9 -8 -8 -9 -9 -9 -9 -8 -8 -7 -7 -7 -7 -7 -6 -6 -6 -6 -6 -5 -6 -5 -5 -5 -5 -5 -6 -7 -6 -6 -6
-10 -9 -10 -10 -10 -10 -9 -10 -10 -10 -9 -9 -9 -8 -8 -9 -9 -9 -9 -8 -7 -7 -7 -7 -7 -7 -7 -6 -6 -6 -6 -6 -6 -6 -6 -5 -5 -6 -7 -6 -7 -7 -7 -6
-10 -9 -9 -9 -9 -10 -9 -10 -10 -10 -9 -9 -9 -8 -8 -9 -9 -8 -8 -8 -8 -7 -8 -8 -7 -8 -8 -7 -7 -7 -7 -7 -7 -7 -7 -6 -6 -6 -7 -7 -7 -7 -7 -7
-9 -9 -9 -10 -9 -9 -9 -9 -9 -9 -9 -9 -8 -8 -8 -8 -9 -9 -8 -8 -8 -7 -8 -8 -8 -8 -7 -7 -7 -7 -7 -8 -8 -8 -8 -8 -7 -7 -7 -7 -8 -8 -8 -8
-9 -10 -10 -9 -9 -9 -9 -9 -9 -9 -9 -8 -8 -8 -8 -8 -8 -8 -8 -7 -8 -8 -9 -9 -8 -8 -8 -8 -8 -8 -8 -9 -9 -9 -8 -8 -8 -8 -8 -9 -9 -9 -9 -9
-8 -8 -8 -9 -9 -9 -9 -8 -8 -9 -9 -9 -9 -8 -8 -8 -8 -8 -7 -8 -8 -9 -10 -12 -10 -10 -10 -11 -10 -10 -10 -10 -10 -10 -10 -10 -10 -10 -10 -11 -11 -11 -12 -12
-8 -8 -8 -9 -10 -9 -9 -9 -9 -9 -9 -9 -9 -8 -8 -8 -8 -7 -8 -8 -9 -11 -14 -12 -12 -12 -12 -12 -12 -12 -12 -12 -12 -12 -12 -12 -12 -12 -12 -12 -12 -13 -13 -13
-7 -8 -9 -10 -10 -10 -9 -9 -9 -9 -10 -9 -9 -8 -8 -8 -8 -8 -8 -10 -13 -13 -13 -14 -14 -14 -14 -13 -13 -13 -13 -13 -13 -13 -13 -13 -13 -13 -13 -13 -14 -14 -14 -14
-7 -9 -9 -10 -10 -10 -10 -9 -10 -10 -9 -9 -8 -8 -8 -9 -9 -10 -11 -12 -13 -14 -14 -14 -14 -14 -14 -14 -14 -14 -14 -14 -14 -14 -14 -14 -14 -14 -15 -15 -14 -14 -15 -15

GFSNW_700_temp_075.txt.gz
Temp
-13 -12 -11 -12 -12 -11 -10 -10 -10 -10 -8 -8 -8 -8 -8 -7 -5 -5 -5 -5 -4 -3 -2 -2 -1 -0 -2 -3 -2 -0 1 1 2 2 2 2 3 3 4 5 5 6 6 7
-13 -13 -13 -12 -12 -12 -12 -12 -11 -10 -8 -9 -9 -9 -8 -7 -6 -6 -5 -5 -4 -4 -3 -3 -2 -2 -3 -3 -3 -3 -2 1 2 1 2 3 3 4 4 4 4 3 2 6
-13 -13 -13 -12 -11 -12 -12 -11 -11 -11 -9 -9 -8 -8 -8 -7 -7 -6 -5 -5 -4 -4 -4 -3 -3 -3 -3 -3 -3 -2 -3 -1 2 3 2 2 3 3 3 4 4 5 5 5
-13 -12 -13 -12 -12 -12 -12 -12 -11 -10 -10 -10 -10 -8 -7 -7 -6 -7 -6 -6 -5 -5 -4 -3 -3 -3 -3 -3 -3 -2 -3 -2 -1 0 -0 1 2 3 3 3 4 4 4 4
-12 -12 -12 -13 -12 -12 -12 -12 -11 -11 -10 -9 -9 -9 -8 -8 -6 -6 -6 -6 -5 -5 -5 -4 -3 -3 -4 -3 -3 -3 -2 -1 -1 -1 0 0 1 1 2 2 3 3 4 4
-11 -11 -11 -12 -12 -12 -12 -12 -11 -11 -11 -10 -9 -9 -9 -8 -8 -7 -7 -6 -5 -6 -5 -5 -5 -5 -5 -5 -4 -4 -4 -2 -0 -0 0 0 0 1 1 2 2 3 3 4
-10 -11 -11 -11 -12 -12 -12 -11 -11 -12 -11 -10 -9 -8 -9 -8 -8 -7 -6 -6 -6 -6 -6 -6 -6 -6 -6 -5 -5 -5 -4 -3 -1 -1 -1 0 2 2 2 2 3 3 3 3
-10 -10 -10 -11 -11 -11 -11 -11 -11 -11 -11 -11 -10 -9 -9 -9 -8 -8 -7 -7 -6 -6 -6 -7 -6 -6 -5 -5 -5 -4 -5 -3 -2 -2 0 1 1 1 1 2 2 2 2 1
-10 -10 -10 -10 -11 -11 -11 -11 -11 -11 -11 -11 -10 -9 -9 -8 -8 -8 -7 -7 -7 -7 -7 -7 -6 -4 -3 -3 -3 -4 -4 -4 -3 -2 -1 0 1 0 -0 1 2 0 0 -0
-10 -10 -10 -11 -11 -11 -11 -11 -11 -11 -11 -10 -10 -10 -9 -8 -8 -8 -7 -7 -7 -7 -7 -7 -6 -4 -3 -3 -3 -4 -5 -5 -4 -3 -2 -0 1 0 -1 1 -0 -2 -2 -1
-10 -10 -11 -11 -11 -11 -11 -11 -11 -11 -11 -10 -10 -10 -9 -9 -8 -8 -7 -7 -7 -8 -7 -7 -5 -5 -4 -3 -3 -4 -4 -5 -5 -4 -4 -2 -1 -1 -1 -1 -3 -3 -3 -3
-10 -10 -10 -10 -11 -11 -11 -11 -10 -11 -11 -10 -10 -10 -10 -9 -8 -8 -8 -8 -7 -7 -7 -6 -6 -5 -4 -3 -3 -3 -4 -4 -3 -3 -2 -2 -2 -2 -3 -3 -3 -3 -2 -1
-9 -10 -10 -10 -10 -10 -10 -10 -10 -11 -11 -11 -10 -9 -9 -9 -8 -8 -8 -8 -8 -7 -7 -7 -6 -6 -5 -4 -3 -3 -3 -4 -4 -3 -2 -2 -3 -2 -3 -2 -2 -2 -2 -2
-9 -9 -9 -10 -10 -10 -10 -10 -10 -10 -10 -11 -9 -9 -9 -8 -8 -8 -8 -8 -8 -7 -7 -7 -7 -6 -5 -5 -4 -4 -3 -4 -3 -2 -2 -2 -2 -3 -4 -3 -3 -2 -2 -3
-9 -9 -9 -9 -10 -10 -10 -10 -10 -9 -10 -10 -9 -10 -8 -8 -8 -8 -8 -8 -8 -8 -7 -7 -6 -7 -6 -6 -6 -5 -4 -3 -3 -3 -4 -3 -4 -4 -3 -3 -3 -3 -3 -3
-10 -10 -9 -9 -10 -10 -10 -10 -10 -10 -10 -10 -9 -9 -8 -8 -8 -7 -7 -8 -8 -8 -7 -7 -6 -7 -7 -6 -5 -5 -5 -5 -5 -4 -4 -4 -4 -4 -4 -4 -4 -4 -4 -4
-10 -10 -10 -10 -10 -10 -10 -10 -8 -9 -10 -10 -10 -9 -7 -7 -8 -8 -8 -8 -8 -7 -7 -7 -7 -7 -7 -7 -6 -6 -5 -5 -5 -5 -5 -5 -5 -5 -4 -4 -4 -4 -4 -4
-10 -10 -9 -10 -10 -10 -10 -9 -9 -10 -10 -10 -9 -9 -8 -8 -8 -9 -8 -7 -7 -7 -7 -8 -7 -6 -7 -7 -6 -6 -5 -5 -6 -5 -6 -6 -5 -5 -5 -5 -5 -5 -4 -5
-10 -9 -10 -10 -10 -10 -10 -10 -10 -9 -10 -9 -9 -8 -8 -8 -8 -8 -8 -8 -8 -8 -8 -7 -7 -7 -7 -7 -6 -6 -6 -6 -6 -6 -6 -5 -5 -5 -5 -5 -5 -5 -5 -5
-9 -9 -10 -10 -10 -10 -10 -10 -10 -9 -9 -9 -8 -8 -8 -8 -8 -8 -8 -8 -8 -8 -7 -7 -8 -7 -7 -7 -6 -6 -6 -6 -6 -6 -6 -6 -6 -6 -6 -5 -5 -6 -6 -6
-10 -10 -10 -10 -9 -10 -10 -10 -9 -9 -9 -9 -9 -9 -8 -8 -8 -8 -8 -8 -8 -7 -7 -7 -7 -7 -6 -6 -7 -6 -6 -6 -6 -6 -6 -7 -7 -7 -6 -7 -7 -7 -7 -7
-9 -9 -9 -10 -9 -9 -9 -9 -9 -9 -9 -9 -9 -8 -8 -8 -8 -8 -8 -8 -8 -7 -7 -7 -8 -8 -7 -7 -7 -7 -7 -7 -7 -7 -7 -8 -8 -8 -8 -8 -8 -8 -8 -8
-9 -9 -9 -9 -9 -9 -9 -9 -9 -9 -8 -8 -8 -8 -9 -8 -8 -8 -8 -7 -8 -8 -9 -9 -10 -8 -8 -8 -7 -8 -8 -8 -8 -9 -9 -9 -9 -9 -9 -9 -9 -10 -10 -10
-8 -8 -8 -8 -8 -8 -8 -8 -8 -8 -8 -8 -8 -9 -8 -8 -8 -8 -8 -8 -8 -9 -10 -12 -10 -9 -9 -9 -9 -9 -9 -9 -10 -10 -10 -10 -11 -11 -11 -11 -11 -12 -12 -12
-8 -9 -9 -9 -9 -8 -8 -8 -8 -8 -8 -9 -9 -8 -8 -8 -8 -8 -8 -8 -10 -11 -13 -12 -11 -11 -11 -11 -11 -11 -12 -12 -12 -12 -12 -13 -13 -13 -13 -13 -13 -14 -14 -13
-9 -9 -10 -11 -10 -9 -9 -9 -9 -9 -9 -9 -8 -8 -8 -8 -8 -8 -8 -11 -12 -13 -11 -12 -13 -13 -13 -13 -13 -13 -14 -14 -14 -14 -14 -14 -14 -14 -14 -14 -14 -14 -15 -15
-8 -10 -9 -9 -9 -9 -9 -10 -9 -9 -9 -9 -8 -8 -8 -8 -9 -9 -10 -11 -11 -12 -13 -14 -14 -14 -15 -15 -15 -14 -15 -15 -15 -15 -15 -15 -15 -15 -15 -15 -15 -15 -15 -15

GFSNW_700_temp_078.txt.gz
Temp
-13 -13 -13 -13 -12 -12 -11 -11 -11 -9 -8 -8 -8 -8 -8 -6 -5 -4 -4 -4 -3 -2 -1 -0 -0 1 -1 -2 -2 -1 -1 1 1 2 1 0 -0 1 1 -0 1 3 3 6
-13 -13 -13 -12 -12 -11 -11 -11 -11 -9 -8 -9 -9 -8 -8 -7 -6 -5 -4 -4 -4 -3 -2 -2 -1 -1 -1 -2 -2 -3 -1 0 1 2 0 2 1 -0 -0 1 0 -0 1 5
-13 -13 -13 -12 -12 -11 -11 -11 -11 -9 -9 -9 -8 -8 -8 -7 -6 -6 -5 -4 -4 -3 -3 -2 -2 -1 -2 -2 -2 -2 -2 -2 -1 -0 -1 -1 0 2 1 2 2 2 1 2
-12 -12 -13 -12 -12 -12 -12 -11 -11 -9 -10 -9 -9 -8 -8 -7 -6 -6 -5 -5 -4 -4 -3 -3 -2 -2 -2 -2 -2 -2 -2 -3 -2 -1 -1 -0 -1 0 0 -1 0 1 2 2
-12 -12 -12 -12 -12 -12 -12 -12 -11 -11 -10 -9 -8 -8 -8 -8 -7 -6 -6 -5 -4 -4 -4 -4 -4 -3 -4 -3 -2 -3 -2 -2 -2 -1 -0 -1 1 1 2 2 2 2 2 2
-11 -11 -11 -11 -12 -12 -12 -12 -11 -11 -10 -10 -9 -8 -8 -7 -8 -7 -6 -6 -6 -5 -4 -4 -4 -4 -5 -4 -4 -3 -3 -2 -1 -1 -0 -1 1 1 1 2 3 3 3 4
-11 -10 -10 -11 -11 -12 -12 -11 -11 -11 -10 -10 -9 -8 -8 -8 -7 -7 -7 -7 -6 -5 -5 -5 -5 -5 -5 -4 -5 -4 -4 -3 -2 -1 -0 -1 1 2 2 2 2 2 3 3
-11 -10 -10 -10 -11 -11 -11 -11 -11 -11 -11 -11 -10 -9 -9 -8 -8 -8 -7 -7 -7 -6 -6 -6 -6 -5 -5 -5 -5 -5 -4 -4 -3 -1 -1 1 2 2 2 2 2 2 3 2
-11 -10 -10 -10 -10 -11 -11 -11 -11 -11 -11 -10 -10 -9 -9 -8 -8 -8 -7 -7 -6 -6 -6 -6 -6 -4 -4 -3 -3 -4 -4 -4 -4 -2 -1 -0 1 1 1 2 2 1 1 1
-11 -10 -10 -10 -10 -10 -11 -10 -11 -11 -11 -10 -10 -10 -9 -8 -8 -8 -8 -7 -6 -7 -7 -7 -6 -5 -4 -3 -3 -3 -4 -4 -4 -4 -3 -1 0 0 -0 1 -0 -1 -1 -2
-10 -10 -10 -10 -10 -10 -10 -10 -11 -11 -11 -10 -10 -11 -10 -9 -9 -8 -8 -7 -7 -7 -7 -7 -6 -5 -4 -4 -3 -4 -3 -4 -4 -4 -3 -2 -1 -1 -2 -1 -2 -3 -2 -3
-10 -10 -10 -10 -10 -10 -11 -11 -11 -11 -11 -10 -10 -10 -9 -10 -9 -9 -8 -8 -7 -7 -7 -7 -6 -5 -5 -4 -3 -4 -4 -3 -3 -3 -3 -1 -1 -1 -2 -3 -3 -3 -3 -3
-9 -9 -9 -10 -10 -11 -11 -11 -11 -12 -11 -11 -10 -9 -8 -9 -9 -9 -8 -8 -7 -7 -7 -7 -6 -6 -5 -4 -3 -3 -4 -4 -4 -3 -2 -2 -2 -3 -3 -4 -3 -3 -2 -2
-9 -9 -9 -9 -10 -10 -11 -11 -11 -11 -11 -11 -8 -9 -9 -9 -10 -9 -9 -8 -8 -8 -8 -7 -7 -6 -6 -5 -5 -4 -4 -4 -4 -4 -4 -4 -4 -4 -5 -3 -3 -3 -3 -2
-9 -9 -9 -9 -10 -10 -10 -10 -10 -10 -10 -10 -10 -9 -10 -8 -8 -9 -8 -8 -8 -8 -8 -8 -7 -6 -6 -5 -5 -5 -4 -5 -4 -4 -4 -4 -5 -5 -5 -4 -3 -3 -3 -3
-9 -9 -9 -9 -9 -10 -10 -10 -10 -10 -10 -10 -9 -9 -9 -9 -9 -8 -8 -8 -8 -8 -8 -7 -7 -7 -6 -6 -5 -5 -5 -5 -5 -5 -5 -5 -5 -4 -4 -4 -4 -4 -3 -3
-9 -9 -9 -10 -10 -10 -10 -10 -9 -9 -10 -10 -9 -9 -9 -9 -8 -8 -8 -8 -8 -8 -8 -7 -7 -7 -7 -6 -6 -6 -6 -6 -5 -5 -5 -5 -4 -4 -4 -4 -4 -4 -4 -4
-9 -10 -10 -9 -9 -10 -10 -10 -10 -10 -9 -10 -10 -9 -8 -8 -8 -8 -8 -8 -8 -7 -8 -8 -7 -7 -7 -7 -6 -6 -6 -6 -6 -6 -6 -5 -5 -5 -5 -4 -5 -4 -4 -4
-10 -10 -10 -9 -10 -10 -10 -10 -10 -10 -10 -10 -9 -8 -8 -8 -8 -7 -8 -7 -8 -8 -8 -7 -7 -7 -7 -6 -6 -6 -5 -6 -6 -6 -5 -5 -5 -5 -5 -5 -5 -5 -5 -5
-9 -9 -10 -10 -10 -10 -10 -10 -10 -10 -10 -10 -9 -9 -8 -8 -8 -8 -8 -8 -8 -8 -7 -7 -7 -8 -7 -7 -6 -5 -6 -6 -6 -6 -6 -6 -6 -6 -6 -6 -6 -6 -6 -6
-10 -10 -10 -10 -10 -10 -10 -9 -10 -10 -9 -9 -9 -8 -8 -8 -7 -8 -8 -8 -8 -7 -7 -7 -7 -8 -7 -7 -6 -6 -6 -6 -6 -6 -6 -7 -7 -7 -6 -7 -7 -7 -7 -7
-9 -9 -9 -9 -10 -9 -9 -9 -9 -9 -8 -8 -9 -8 -8 -8 -8 -8 -8 -8 -7 -7 -7 -7 -8 -7 -6 -6 -6 -7 -7 -7 -7 -7 -7 -7 -7 -8 -8 -8 -8 -8 -8 -8
-10 -10 -10 -9 -9 -9 -9 -9 -9 -9 -9 -8 -8 -8 -8 -8 -8 -8 -8 -8 -8 -8 -8 -8 -10 -8 -8 -8 -8 -8 -8 -9 -9 -9 -9 -9 -9 -9 -9 -9 -10 -10 -10 -10
-10 -9 -9 -10 -9 -8 -9 -8 -8 -7 -7 -8 -8 -8 -8 -8 -8 -8 -8 -8 -8 -9 -8 -11 -10 -9 -10 -10 -10 -10 -10 -10 -11 -11 -11 -11 -11 -11 -11 -11 -12 -12 -12 -12
-9 -8 -8 -9 -9 -9 -8 -8 -8 -8 -9 -8 -9 -8 -8 -8 -8 -8 -8 -8 -10 -10 -12 -12 -11 -11 -11 -11 -11 -12 -12 -12 -12 -12 -12 -13 -13 -13 -13 -13 -13 -14 -14 -14
-8 -9 -11 -11 -11 -9 -8 -8 -9 -9 -9 -9 -9 -8 -8 -8 -8 -9 -9 -10 -11 -13 -11 -11 -11 -12 -13 -13 -13 -13 -13 -14 -14 -14 -14 -14 -14 -14 -15 -15 -15 -15 -15 -15
-9 -11 -11 -11 -10 -9 -9 -9 -9 -9 -9 -8 -8 -8 -9 -9 -10 -10 -10 -11 -10 -11 -12 -13 -13 -14 -14 -14 -15 -15 -15 -15 -15 -15 -15 -15 -15 -15 -15 -15 -16 -15 -15 -15

GFSNW_700_temp_081.txt.gz
Temp
-12 -12 -13 -12 -13 -12 -12 -12 -11 -10 -10 -9 -9 -9 -8 -6 -6 -5 -5 -4 -3 -3 -3 -2 -1 -0 -1 -1 -1 -1 -1 -1 -0 0 1 1 -0 -1 -2 -2 -0 1 0 1
-12 -12 -13 -13 -13 -12 -12 -11 -11 -10 -9 -10 -9 -8 -8 -7 -6 -6 -5 -4 -4 -3 -3 -3 -2 -1 -1 -2 -2 -1 -2 -2 -0 0 1 0 -2 -1 -1 -2 -1 -1 -0 1
-12 -12 -13 -13 -12 -12 -12 -12 -11 -10 -10 -8 -9 -8 -8 -7 -7 -6 -6 -6 -5 -4 -3 -3 -3 -2 -2 -3 -2 -1 -1 -1 -2 -2 -2 -2 -2 -2 -2 -2 -1 -0 -1 1
-12 -12 -12 -13 -13 -12 -12 -12 -11 -11 -10 -9 -9 -9 -8 -7 -7 -7 -6 -6 -5 -5 -4 -4 -3 -3 -2 -2 -3 -2 -2 -2 -2 -1 -2 -1 -2 -2 -2 -2 -1 -1 0 -0
-11 -12 -12 -12 -12 -12 -13 -12 -11 -11 -10 -9 -9 -9 -8 -7 -7 -7 -6 -6 -6 -5 -5 -4 -4 -4 -3 -4 -3 -3 -3 -3 -2 -2 -2 -1 -1 -1 -1 -2 -1 -1 -1 -0
-11 -11 -11 -11 -12 -12 -12 -12 -11 -11 -10 -10 -9 -9 -8 -8 -7 -6 -7 -7 -6 -5 -5 -5 -4 -4 -4 -4 -4 -4 -3 -3 -3 -2 -1 -1 -1 1 0 -0 1 -0 1 2
-11 -11 -11 -10 -11 -12 -11 -11 -11 -12 -11 -10 -10 -9 -9 -9 -8 -8 -8 -7 -7 -6 -5 -6 -5 -5 -5 -4 -4 -4 -4 -4 -4 -3 -2 -2 0 1 1 2 2 2 2 2
-11 -11 -11 -11 -11 -11 -11 -11 -12 -12 -11 -10 -10 -10 -10 -9 -9 -8 -8 -7 -7 -7 -6 -6 -6 -5 -5 -4 -4 -4 -4 -4 -4 -3 -2 -1 1 2 1 2 2 2 2 2
-11 -11 -11 -11 -10 -11 -11 -11 -11 -12 -11 -10 -10 -10 -10 -10 -9 -9 -8 -8 -7 -7 -6 -6 -7 -5 -5 -4 -4 -3 -3 -4 -4 -4 -3 -3 -0 1 1 1 1 1 1 1
-11 -11 -10 -10 -10 -10 -11 -10 -11 -12 -12 -10 -11 -10 -10 -9 -10 -9 -8 -8 -7 -7 -7 -7 -7 -6 -5 -4 -4 -4 -4 -5 -5 -4 -4 -3 -1 -0 0 1 -2 -1 0 -0
-11 -10 -10 -10 -10 -10 -10 -10 -11 -11 -11 -10 -10 -10 -10 -10 -9 -9 -8 -8 -7 -7 -8 -7 -6 -6 -5 -4 -4 -5 -5 -5 -5 -5 -4 -4 -1 -1 -0 -1 -2 -1 -2 -2
-10 -10 -10 -10 -10 -10 -10 -10 -10 -11 -11 -10 -9 -10 -10 -10 -10 -10 -9 -8 -8 -8 -7 -7 -7 -6 -5 -5 -5 -5 -5 -4 -4 -4 -3 -3 -2 -2 -2 -2 -2 -2 -2 -2
-9 -9 -9 -10 -10 -10 -10 -10 -10 -11 -12 -10 -10 -9 -9 -9 -10 -10 -9 -9 -8 -8 -8 -7 -7 -7 -6 -5 -4 -5 -5 -5 -4 -4 -4 -3 -4 -4 -3 -3 -3 -3 -4 -3
-9 -9 -10 -10 -10 -10 -10 -10 -10 -11 -11 -11 -8 -9 -9 -9 -10 -9 -9 -9 -8 -8 -8 -8 -8 -7 -7 -6 -6 -5 -5 -5 -4 -4 -4 -4 -4 -4 -5 -5 -5 -5 -4 -3
-9 -10 -10 -10 -10 -10 -10 -11 -11 -11 -11 -10 -9 -9 -9 -9 -9 -9 -8 -8 -9 -9 -8 -8 -8 -6 -7 -6 -6 -6 -6 -5 -5 -5 -5 -4 -5 -5 -5 -5 -6 -4 -4 -3
-9 -10 -10 -10 -10 -10 -11 -11 -11 -11 -11 -11 -10 -9 -9 -8 -9 -9 -9 -8 -8 -8 -8 -8 -7 -7 -7 -6 -6 -6 -6 -6 -5 -6 -5 -6 -6 -6 -6 -5 -5 -4 -4 -4
-9 -10 -10 -10 -10 -10 -10 -10 -9 -10 -10 -11 -11 -9 -9 -9 -9 -9 -9 -8 -8 -8 -9 -8 -7 -7 -7 -7 -6 -6 -6 -6 -6 -7 -6 -6 -6 -6 -5 -5 -4 -4 -4 -4
-10 -10 -10 -10 -10 -10 -10 -10 -10 -10 -10 -11 -10 -9 -9 -9 -9 -9 -9 -8 -8 -8 -8 -7 -7 -7 -7 -7 -6 -6 -6 -6 -6 -7 -6 -6 -5 -5 -5 -5 -5 -5 -5 -5
-10 -10 -10 -10 -10 -10 -9 -10 -10 -10 -10 -10 -10 -9 -8 -8 -9 -9 -8 -8 -9 -8 -8 -7 -8 -8 -8 -7 -6 -6 -7 -6 -6 -6 -6 -6 -6 -6 -6 -6 -6 -6 -5 -5
-10 -10 -10 -10 -10 -9 -10 -10 -10 -10 -10 -10 -9 -9 -8 -8 -9 -9 -8 -8 -8 -8 -7 -8 -7 -7 -7 -7 -7 -6 -6 -6 -6 -7 -6 -6 -6 -6 -6 -6 -6 -6 -6 -6
-10 -10 -9 -9 -10 -10 -10 -10 -10 -10 -10 -9 -9 -9 -8 -8 -8 -8 -8 -8 -8 -8 -7 -7 -8 -8 -7 -7 -7 -7 -7 -6 -6 -6 -7 -7 -7 -6 -6 -7 -7 -7 -7 -7
-9 -9 -9 -10 -10 -10 -9 -9 -9 -9 -9 -8 -8 -8 -8 -8 -8 -8 -8 -8 -8 -8 -7 -8 -9 -8 -7 -7 -8 -8 -7 -7 -7 -7 -7 -7 -7 -7 -7 -8 -8 -8 -8 -9
-10 -10 -10 -10 -9 -9 -9 -9 -9 -9 -8 -8 -7 -8 -8 -8 -8 -8 -8 -8 -8 -8 -7 -8 -9 -8 -9 -8 -9 -8 -8 -8 -8 -8 -8 -8 -8 -9 -9 -9 -9 -9 -10 -10
-10 -9 -9 -9 -9 -9 -9 -9 -8 -7 -7 -7 -8 -8 -8 -8 -8 -8 -8 -8 -8 -9 -8 -9 -8 -9 -10 -10 -10 -10 -10 -10 -10 -10 -10 -11 -11 -11 -11 -11 -12 -12 -12 -13
-9 -8 -8 -9 -9 -9 -8 -8 -7 -7 -8 -7 -8 -8 -8 -8 -8 -8 -8 -8 -9 -9 -10 -10 -10 -11 -11 -11 -12 -12 -12 -12 -12 -13 -13 -13 -13 -13 -13 -14 -14 -14 -14 -14
-8 -8 -9 -10 -10 -9 -8 -8 -8 -9 -10 -9 -9 -8 -8 -8 -8 -8 -9 -9 -9 -10 -10 -11 -12 -12 -13 -13 -13 -14 -14 -14 -14 -14 -14 -15 -15 -15 -15 -15 -15 -15 -15 -15
-9 -11 -10 -10 -10 -9 -9 -9 -9 -9 -9 -9 -9 -8 -9 -9 -9 -9 -9 -9 -10 -11 -11 -12 -12 -13 -13 -13 -14 -14 -14 -14 -14 -15 -15 -15 -15 -15 -15 -15 -16 -16 -16 -16